This is the latest recevied weather packets stored in our database for station/object SP2WPY-13. If no packets are shown the sender has not sent any weather packets the latest 1 day(s).
| Time | Temp. | Humidity | Pressure | Rain* | Wind** | Luminosity | Snow |
|---|---|---|---|---|---|---|---|
| 1777996899 | 8.89° C | 100% | 1013.2 hPa | - | 1.34 m/s, 50° | - | - |
| 1777996580 | 8.89° C | 100% | 1013.2 hPa | - | 1.34 m/s, 21° | - | - |
| 1777996305 | 8.89° C | 100% | 1013.2 hPa | - | 1.34 m/s, 30° | - | - |
| 1777995985 | 8.89° C | 100% | 1013.2 hPa | - | 1.79 m/s, 43° | - | - |
| 1777995666 | 8.89° C | 100% | 1013.2 hPa | - | 2.24 m/s, 48° | - | - |
| 1777995392 | 9.44° C | 100% | 1013.2 hPa | - | 1.79 m/s, 38° | - | - |
| 1777995073 | 9.44° C | 100% | 1013 hPa | - | 2.24 m/s, 40° | - | - |
| 1777994799 | 9.44° C | 100% | 1013.1 hPa | - | 0.45 m/s, 312° | - | - |
| 1777994479 | 9.44° C | 100% | 1013.1 hPa | - | 1.34 m/s, 358° | - | - |
| 1777994205 | 9.44° C | 100% | 1013.1 hPa | - | 1.79 m/s, 28° | - | - |
| 1777993884 | 9.44° C | 100% | 1013.2 hPa | - | 1.34 m/s, 37° | - | - |
| 1777993566 | 9.44° C | 99% | 1013.2 hPa | - | 1.79 m/s, 23° | - | - |
| 1777993291 | 9.44° C | 97% | 1013.2 hPa | - | 1.79 m/s, 49° | - | - |
| 1777992972 | 10° C | 93% | 1013.2 hPa | - | 1.79 m/s, 39° | - | - |
| 1777992697 | 10° C | 92% | 1013.2 hPa | - | 1.79 m/s, 52° | - | - |
| 1777992378 | 10° C | 91% | 1013.2 hPa | - | 0.89 m/s, 90° | - | - |
| 1777992103 | 10.56° C | 88% | 1013.2 hPa | - | 1.34 m/s, 45° | - | - |
| 1777991784 | 10.56° C | 85% | 1013.2 hPa | - | 1.34 m/s, 40° | - | - |
| 1777991465 | 10.56° C | 82% | 1013.2 hPa | - | 2.68 m/s, 40° | - | - |
| 1777991190 | 11.11° C | 81% | 1013.2 hPa | - | 2.24 m/s, 42° | - | - |
| 1777990871 | 11.11° C | 84% | 1013.1 hPa | - | 1.79 m/s, 8° | - | - |
| 1777990597 | 11.67° C | 82% | 1013.2 hPa | - | 1.79 m/s, 53° | - | - |
| 1777990277 | 11.67° C | 83% | 1013.2 hPa | - | 1.34 m/s, 32° | - | - |
| 1777990003 | 11.67° C | 83% | 1013.1 hPa | - | 0.89 m/s, 49° | - | - |
| 1777989684 | 11.67° C | 82% | 1013.2 hPa | - | 1.34 m/s, 72° | - | - |
* Rain since midnight (hover to see other rain measurements)
** Current wind speed in m/s (hover to see current wind gust speed)